| time (UTC) | temp F | wind direction | speed MPH | gust MPH | rain 1hr in | rain 24hr in | rain mn in | humidity % | barometer mb |
| 20260902071818 | 0 | 127 | 1.0 | 6.0 | 0.00 | 0.01 | 0.01 | 61 | |
| 20260902071255 | 0 | 113 | 1.0 | 11.0 | 0.01 | 0.01 | 0.01 | 60 | |
| 20260902070732 | 0 | 114 | 1.0 | 11.0 | 0.01 | 0.01 | 0.01 | 58 | |
| 20260902070209 | 0 | 183 | 4.0 | 11.0 | 0.01 | 0.01 | 0.01 | 58 | |
| 20260902065646 | 0 | 134 | 0.0 | 9.0 | 0.01 | 0.01 | 0.01 | 56 | |
| 20260902065125 | 0 | 156 | 3.0 | 9.0 | 0.01 | 0.01 | 0.01 | 56 | |
| 20260902064600 | 0 | 165 | 0.0 | 9.0 | 0.01 | 0.01 | 0.01 | 55 | |
| 20260902064037 | 0 | 159 | 0.0 | 9.0 | 0.01 | 0.01 | 0.01 | 57 | |
| 20260902063515 | 0 | 50 | 0.0 | 7.0 | 0.01 | 0.01 | 0.01 | 57 | |
| 20260902062951 | 0 | 145 | 0.0 | 7.0 | 0.01 | 0.01 | 0.01 | 55 | |
| 20260902062428 | 0 | 208 | 1.0 | 4.0 | 0.01 | 0.01 | 0.01 | 53 | |
| 20260902061905 | 0 | 42 | 0.0 | 7.0 | 0.01 | 0.01 | 0.01 | 56 | |
| 20260902061342 | 0 | 156 | 0.0 | 7.0 | 0.00 | 0.01 | 0.01 | 57 | |
| 20260902060819 | 0 | 151 | 0.0 | 8.0 | 0.00 | 0.01 | 0.01 | 58 | |
| 20260902060256 | 0 | 341 | 0.0 | 10.0 | 0.00 | 0.01 | 0.01 | 58 | |
| 20260902055734 | 0 | 131 | 0.0 | 10.0 | 0.00 | 0.01 | 0.01 | 58 | |
| 20260902055210 | 0 | 107 | 2.0 | 10.0 | 0.00 | 0.01 | 0.01 | 58 | |
| 20260902054647 | 0 | 81 | 1.0 | 5.0 | 0.00 | 0.01 | 0.01 | 58 | |
| 20260902054124 | 0 | 270 | 0.0 | 7.0 | 0.00 | 0.01 | 0.01 | 57 | |
| 20260902053601 | 0 | 161 | 0.0 | 7.0 | 0.00 | 0.01 | 0.01 | 58 | |
| 20260902053038 | 0 | 162 | 0.0 | 7.0 | 0.00 | 0.01 | 0.01 | 57 | |
| 20260902052515 | 0 | 190 | 0.0 | 5.0 | 0.00 | 0.01 | 0.01 | 57 | |
| 20260902051953 | 0 | 138 | 1.0 | 7.0 | 0.01 | 0.01 | 0.01 | 58 | |
| 20260902051428 | 0 | 42 | 0.0 | 7.0 | 0.01 | 0.01 | 0.01 | 56 | |
| 20260902050906 | 0 | 327 | 0.0 | 5.0 | 0.01 | 0.01 | 0.01 | 55 | |
| 20260902050342 | 0 | 29 | 0.0 | 10.0 | 0.01 | 0.01 | 0.01 | 56 | |
| 20260902045819 | 0 | 163 | 1.0 | 10.0 | 0.01 | 0.01 | 0.01 | 56 | |
| 20260902045256 | 0 | 176 | 0.0 | 7.0 | 0.01 | 0.01 | 0.01 | 57 | |
| 20260902044734 | 0 | 200 | 2.0 | 5.0 | 0.01 | 0.01 | 0.01 | 58 | |
| 20260902044210 | 0 | 119 | 0.0 | 5.0 | 0.01 | 0.01 | 0.01 | 57 | |
| 20260902043647 | 0 | 4 | 0.0 | 3.0 | 0.01 | 0.01 | 0.01 | 57 | |
| 20260902043124 | 0 | 186 | 0.0 | 6.0 | 0.01 | 0.01 | 0.01 | 60 | |
| 20260902042602 | 0 | 168 | 0.0 | 6.0 | 0.01 | 0.01 | 0.01 | 61 | |
| 20260902040953 | 0 | 203 | 1.0 | 8.0 | 0.00 | 0.00 | 0.00 | 62 | |
| 20260902040429 | 0 | 203 | 1.0 | 8.0 | 0.00 | 0.00 | 0.00 | 69 | |
| 20260902035906 | 0 | 228 | 0.0 | 8.0 | 0.00 | 0.00 | 0.00 | 65 | |
| 20260902035343 | 0 | 43 | 2.0 | 6.0 | 0.00 | 0.00 | 0.00 | 59 | |
| 20260902034821 | 0 | 194 | 0.0 | 5.0 | 0.00 | 0.00 | 0.00 | 55 | |
| 20260902034258 | 0 | 54 | 1.0 | 8.0 | 0.00 | 0.00 | 0.00 | 58 | |
| 20260902033735 | 0 | 159 | 2.0 | 8.0 | 0.00 | 0.00 | 0.00 | 58 | |
| 20260902033211 | 0 | 113 | 0.0 | 8.0 | 0.00 | 0.00 | 0.00 | 53 | |
| 20260902032648 | 0 | 169 | 4.0 | 7.0 | 0.00 | 0.00 | 0.00 | 48 | |
| 20260902032125 | 0 | 151 | 0.0 | 7.0 | 0.00 | 0.00 | 0.00 | 49 | |
| 20260902031603 | 0 | 217 | 2.0 | 6.0 | 0.00 | 0.00 | 0.00 | 43 | |
| 20260902031039 | 0 | 152 | 0.0 | 6.0 | 0.00 | 0.00 | 0.00 | 1 | |
| 20260902025954 | 0 | 200 | 2.0 | 5.0 | 0.00 | 0.04 | 0.00 | 52 | |
| 20260902025430 | 0 | 200 | 0.0 | 8.0 | 0.00 | 0.04 | 0.00 | 51 | |
| 20260902024907 | 0 | 140 | 1.0 | 8.0 | 0.00 | 0.04 | 0.00 | 51 | |
| 20260902024344 | 0 | 156 | 2.0 | 4.0 | 0.00 | 0.04 | 0.00 | 59 | |
| 20260902023821 | 0 | 183 | 0.0 | 5.0 | 0.00 | 0.04 | 0.00 | 44 | |
| 20260902023259 | 0 | 194 | 1.0 | 5.0 | 0.00 | 0.04 | 0.00 | 51 | |
| 20260902022737 | 0 | 168 | 1.0 | 4.0 | 0.00 | 0.04 | 0.00 | 50 | |
| 20260902022212 | 0 | 176 | 0.0 | 7.0 | 0.00 | 0.04 | 0.00 | 47 | |
| 20260902021649 | 0 | 0 | 1.0 | 7.0 | 0.00 | 0.04 | 0.00 | 49 | |
| 20260902021127 | 0 | 196 | 0.0 | 7.0 | 0.00 | 0.04 | 0.00 | 50 | |
| 20260902020604 | 0 | 0 | 0.0 | 1.0 | 0.00 | 0.04 | 0.00 | 58 | |
| 20260902020040 | 0 | 0 | 0.0 | 1.0 | 0.00 | 0.04 | 0.00 | 52 | |
| 20260902015517 | 0 | 186 | 0.0 | 1.0 | 0.00 | 0.04 | 0.00 | 58 | |
| 20260902014954 | 0 | 7 | 0.0 | 7.0 | 0.00 | 0.04 | 0.00 | 49 | |
| 20260902014431 | 0 | 64 | 0.0 | 7.0 | 0.00 | 0.04 | 0.00 | 50 | |
| 20260902013908 | 0 | 54 | 0.0 | 4.0 | 0.00 | 0.04 | 0.00 | 51 | |
| 20260902013345 | 0 | 173 | 0.0 | 4.0 | 0.00 | 0.04 | 0.00 | 46 | |
| 20260902012822 | 0 | 296 | 1.0 | 3.0 | 0.00 | 0.04 | 0.00 | 50 | |
| 20260902012259 | 0 | 165 | 1.0 | 6.0 | 0.00 | 0.04 | 0.00 | 49 | |
| 20260902011736 | 0 | 196 | 0.0 | 6.0 | 0.00 | 0.04 | 0.00 | 51 | |
| 20260902011213 | 0 | 47 | 0.0 | 4.0 | 0.00 | 0.04 | 0.00 | 47 | |
| 20260902010650 | 0 | 168 | 0.0 | 5.0 | 0.00 | 0.04 | 0.00 | 43 | |
| 20260902010127 | 0 | 36 | 0.0 | 5.0 | 0.00 | 0.04 | 0.00 | 52 | |
| 20260902005604 | 0 | 184 | 0.0 | 5.0 | 0.00 | 0.04 | 0.00 | 56 | |
| 20260902005041 | 0 | 131 | 0.0 | 2.0 | 0.00 | 0.04 | 0.00 | 47 | |
| 20260902004518 | 0 | 71 | 0.0 | 2.0 | 0.00 | 0.04 | 0.00 | 59 | |
| 20260902003955 | 0 | 21 | 0.0 | 2.0 | 0.00 | 0.04 | 0.00 | 58 | |
| 20260902003432 | 0 | 98 | 0.0 | 6.0 | 0.00 | 0.04 | 0.00 | 41 | |
| 20260902002909 | 0 | 182 | 0.0 | 6.0 | 0.00 | 0.04 | 0.00 | 46 | |
| 20260902002346 | 0 | 161 | 0.0 | 4.0 | 0.00 | 0.04 | 0.00 | 47 | |
| 20260902001823 | 0 | 180 | 2.0 | 4.0 | 0.00 | 0.04 | 0.00 | 52 | |
| 20260902001300 | 0 | 120 | 0.0 | 3.0 | 0.00 | 0.04 | 0.00 | 54 | |
| 20260902000737 | 0 | 60 | 0.0 | 6.0 | 0.00 | 0.04 | 0.00 | 53 | |
| 20260902000214 | 0 | 170 | 0.0 | 6.0 | 0.00 | 0.04 | 0.00 | 54 | |
| 20260901235651 | 0 | 162 | 0.0 | 6.0 | 0.00 | 0.04 | 0.00 | 53 | |
| 20260901235128 | 0 | 163 | 1.0 | 5.0 | 0.00 | 0.04 | 0.00 | 53 | |
| 20260901234605 | 0 | 149 | 1.0 | 6.0 | 0.00 | 0.04 | 0.00 | 54 | |
| 20260901234042 | 0 | 247 | 0.0 | 6.0 | 0.00 | 0.04 | 0.00 | 56 | |
| 20260901233519 | 0 | 137 | 2.0 | 6.0 | 0.00 | 0.04 | 0.04 | 55 | |
| 20260901232956 | 0 | 141 | 1.0 | 6.0 | 0.00 | 0.04 | 0.04 | 53 | |
| 20260901232433 | 0 | 54 | 0.0 | 6.0 | 0.00 | 0.04 | 0.04 | 53 | |
| 20260901231910 | 0 | 180 | 2.0 | 6.0 | 0.00 | 0.04 | 0.04 | 52 | |
| 20260901231347 | 0 | 141 | 1.0 | 6.0 | 0.00 | 0.04 | 0.04 | 54 | |
| 20260901230824 | 0 | 78 | 2.0 | 6.0 | 0.00 | 0.04 | 0.04 | 53 | |
| 20260901230301 | 0 | 169 | 0.0 | 6.0 | 0.00 | 0.04 | 0.04 | 53 | |
| 20260901225738 | 0 | 113 | 1.0 | 5.0 | 0.00 | 0.04 | 0.04 | 52 | |
| 20260901225215 | 0 | 135 | 1.0 | 4.0 | 0.00 | 0.04 | 0.04 | 52 | |
| 20260901224652 | 0 | 140 | 0.0 | 5.0 | 0.00 | 0.04 | 0.04 | 50 | |
| 20260901224129 | 0 | 320 | 0.0 | 5.0 | 0.00 | 0.04 | 0.04 | 51 | |
| 20260901223606 | 0 | 176 | 2.0 | 5.0 | 0.00 | 0.04 | 0.04 | 49 | |
| 20260901223043 | 0 | 47 | 0.0 | 4.0 | 0.00 | 0.04 | 0.04 | 49 | |
| 20260901222520 | 0 | 138 | 0.0 | 4.0 | 0.00 | 0.04 | 0.04 | 45 | |
| 20260901221956 | 0 | 134 | 0.0 | 6.0 | 0.04 | 0.04 | 0.04 | 46 | |
| 20260901221434 | 0 | 84 | 0.0 | 6.0 | 0.04 | 0.04 | 0.04 | 44 | |
| 20260901220910 | 0 | 190 | 0.0 | 2.0 | 0.04 | 0.04 | 0.04 | 40 | |
| 20260901220347 | 0 | 148 | 0.0 | 4.0 | 0.04 | 0.04 | 0.04 | 47 | |
| 20260901215824 | 0 | 212 | 0.0 | 4.0 | 0.04 | 0.04 | 0.04 | 43 | |
| 20260901215301 | 0 | 235 | 0.0 | 7.0 | 0.04 | 0.04 | 0.04 | 44 | |
| 20260901214738 | 0 | 190 | 0.0 | 7.0 | 0.04 | 0.04 | 0.04 | 37 | |
| 20260901214215 | 0 | 43 | 1.0 | 7.0 | 0.04 | 0.04 | 0.04 | 42 | |
| 20260901213652 | 0 | 168 | 1.0 | 6.0 | 0.04 | 0.04 | 0.04 | 44 | |
| 20260901213129 | 0 | 250 | 1.0 | 6.0 | 0.04 | 0.04 | 0.04 | 44 | |
| 20260901212606 | 0 | 74 | 0.0 | 4.0 | 0.04 | 0.04 | 0.04 | 44 | |
| 20260901212043 | 0 | 149 | 0.0 | 5.0 | 0.00 | 0.04 | 0.04 | 46 | |
| 20260901211520 | 0 | 149 | 0.0 | 5.0 | 0.00 | 0.04 | 0.04 | 44 | |
| 20260901210957 | 0 | 151 | 0.0 | 6.0 | 0.00 | 0.04 | 0.04 | 44 | |
| 20260901210434 | 0 | 2 | 1.0 | 6.0 | 0.00 | 0.04 | 0.04 | 45 | |
| 20260901205911 | 0 | 214 | 2.0 | 6.0 | 0.00 | 0.04 | 0.04 | 44 | |
| 20260901205348 | 0 | 179 | 0.0 | 6.0 | 0.00 | 0.04 | 0.04 | 48 | |
| 20260901204826 | 0 | 156 | 1.0 | 4.0 | 0.00 | 0.04 | 0.04 | 46 | |
| 20260901204303 | 0 | 334 | 1.0 | 5.0 | 0.00 | 0.04 | 0.04 | 47 | |
| 20260901203739 | 0 | 78 | 1.0 | 5.0 | 0.00 | 0.04 | 0.04 | 45 | |
| 20260901203216 | 0 | 112 | 1.0 | 5.0 | 0.00 | 0.04 | 0.04 | 48 | |
| 20260901202653 | 0 | 78 | 3.0 | 9.0 | 0.00 | 0.04 | 0.04 | 47 | |
| 20260901202130 | 0 | 210 | 1.0 | 9.0 | 0.00 | 0.04 | 0.04 | 46 | |
| 20260901201607 | 0 | 212 | 1.0 | 9.0 | 0.00 | 0.04 | 0.04 | 47 | |
| 20260901201044 | 0 | 175 | 1.0 | 8.0 | 0.00 | 0.04 | 0.04 | 45 | |
| 20260901200521 | 0 | 168 | 1.0 | 6.0 | 0.00 | 0.04 | 0.04 | 45 | |
| 20260901195958 | 0 | 126 | 1.0 | 4.0 | 0.00 | 0.04 | 0.04 | 44 | |
| 20260901195435 | 0 | 65 | 1.0 | 3.0 | 0.00 | 0.04 | 0.04 | 41 | |
| 20260901194912 | 0 | 158 | 1.0 | 2.0 | 0.00 | 0.04 | 0.04 | 43 | |
| 20260901194349 | 0 | 22 | 0.0 | 5.0 | 0.00 | 0.04 | 0.04 | 41 | |
| 20260901193828 | 0 | 161 | 1.0 | 5.0 | 0.00 | 0.04 | 0.04 | 42 | |
| 20260901193303 | 0 | 35 | 0.0 | 8.0 | 0.00 | 0.04 | 0.04 | 41 | |
| 20260901192740 | 0 | 135 | 1.0 | 8.0 | 0.00 | 0.04 | 0.04 | 44 | |
| 20260901192217 | 0 | 142 | 0.0 | 8.0 | 0.00 | 0.04 | 0.04 | 42 | |
| 20260901191654 | 0 | 190 | 2.0 | 7.0 | 0.00 | 0.04 | 0.04 | 46 | |
| 20260901191131 | 0 | 51 | 2.0 | 7.0 | 0.00 | 0.04 | 0.04 | 44 | |
| 20260901190608 | 0 | 43 | 1.0 | 6.0 | 0.00 | 0.04 | 0.04 | 44 | |
| 20260901190045 | 0 | 337 | 1.0 | 4.0 | 0.00 | 0.04 | 0.04 | 45 | |
| 20260901185522 | 0 | 162 | 0.0 | 4.0 | 0.00 | 0.04 | 0.04 | 47 | |
| 20260901184959 | 0 | 177 | 1.0 | 4.0 | 0.00 | 0.04 | 0.04 | 46 | |
| 20260901184436 | 0 | 197 | 0.0 | 4.0 | 0.00 | 0.04 | 0.04 | 47 | |
| 20260901183913 | 0 | 183 | 0.0 | 3.0 | 0.00 | 0.04 | 0.04 | 48 | |
| 20260901183350 | 0 | 352 | 0.0 | 3.0 | 0.04 | 0.04 | 0.04 | 47 | |
| 20260901182828 | 0 | 211 | 0.0 | 3.0 | 0.04 | 0.04 | 0.04 | 47 | |
| 20260901182305 | 0 | 0 | 0.0 | 4.0 | 0.04 | 0.04 | 0.04 | 45 | |
| 20260901181741 | 0 | 182 | 0.0 | 4.0 | 0.04 | 0.04 | 0.04 | 45 | |
| 20260901181218 | 0 | 338 | 0.0 | 3.0 | 0.04 | 0.04 | 0.04 | 44 | |
| 20260901180655 | 0 | 172 | 0.0 | 3.0 | 0.04 | 0.04 | 0.04 | 41 | |
| 20260901180132 | 0 | 149 | 0.0 | 3.0 | 0.04 | 0.04 | 0.04 | 39 | |
| 20260901175609 | 0 | 119 | 0.0 | 2.0 | 0.04 | 0.04 | 0.04 | 41 | |
| 20260901175046 | 0 | 208 | 0.0 | 1.0 | 0.04 | 0.04 | 0.04 | 42 | |
| 20260901174523 | 0 | 0 | 0.0 | 0.0 | 0.04 | 0.04 | 0.04 | 44 | |
| 20260901174000 | 0 | 0 | 0.0 | 0.0 | 0.04 | 0.04 | 0.04 | 45 | |
| 20260901173437 | 0 | 0 | 0.0 | 0.0 | 0.04 | 0.04 | 0.04 | 49 | |
| 20260901172914 | 0 | 74 | 0.0 | 4.0 | 0.00 | 0.04 | 0.04 | 50 | |
| 20260901172351 | 0 | 0 | 0.0 | 4.0 | 0.00 | 0.04 | 0.04 | 52 | |
| 20260901171829 | 0 | 162 | 0.0 | 4.0 | 0.00 | 0.04 | 0.04 | 51 | |
| 20260901171305 | 0 | 158 | 0.0 | 3.0 | 0.00 | 0.04 | 0.04 | 53 | |
| 20260901170742 | 0 | 81 | 0.0 | 3.0 | 0.00 | 0.04 | 0.04 | 54 | |
| 20260901170219 | 0 | 37 | 0.0 | 3.0 | 0.00 | 0.04 | 0.04 | 54 | |
| 20260901165656 | 0 | 0 | 0.0 | 3.0 | 0.00 | 0.04 | 0.04 | 55 | |
| 20260901165133 | 0 | 141 | 0.0 | 3.0 | 0.00 | 0.04 | 0.04 | 57 | |
| 20260901164610 | 0 | 163 | 0.0 | 3.0 | 0.00 | 0.04 | 0.04 | 58 | |
| 20260901164047 | 0 | 231 | 0.0 | 3.0 | 0.00 | 0.04 | 0.04 | 59 | |
| 20260901163525 | 0 | 0 | 0.0 | 0.0 | 0.00 | 0.04 | 0.04 | 59 | |
| 20260901163001 | 0 | 0 | 0.0 | 7.0 | 0.00 | 0.04 | 0.04 | 60 | |
| 20260901162438 | 0 | 0 | 0.0 | 7.0 | 0.00 | 0.04 | 0.04 | 58 | |
| 20260901161918 | 0 | 142 | 0.0 | 7.0 | 0.00 | 0.04 | 0.04 | 58 | |
| 20260901161352 | 0 | 85 | 0.0 | 5.0 | 0.00 | 0.04 | 0.04 | 59 | |
| 20260901160829 | 0 | 208 | 0.0 | 5.0 | 0.00 | 0.04 | 0.04 | 58 | |
| 20260901160306 | 0 | 0 | 0.0 | 0.0 | 0.00 | 0.04 | 0.04 | 58 | |
| 20260901155743 | 0 | 0 | 0.0 | 0.0 | 0.00 | 0.04 | 0.04 | 58 | |
| 20260901155220 | 0 | 0 | 0.0 | 1.0 | 0.00 | 0.04 | 0.04 | 59 | |
| 20260901154657 | 0 | 0 | 0.0 | 1.0 | 0.00 | 0.04 | 0.04 | 58 | |
| 20260901154134 | 0 | 23 | 0.0 | 1.0 | 0.01 | 0.04 | 0.04 | 60 | |
| 20260901153611 | 0 | 0 | 0.0 | 3.0 | 0.01 | 0.04 | 0.04 | 57 | |
| 20260901153048 | 0 | 0 | 0.0 | 3.0 | 0.01 | 0.04 | 0.04 | 57 | |
| 20260901152616 | 0 | 240 | 0.0 | 3.0 | 0.01 | 0.04 | 0.04 | 56 | |
| 20260901152525 | 0 | 240 | 0.0 | 3.0 | 0.01 | 0.04 | 0.04 | 56 | |
| 20260901152002 | 0 | 264 | 1.0 | 4.0 | 0.01 | 0.04 | 0.04 | 60 | |
| 20260901151439 | 0 | 0 | 0.0 | 4.0 | 0.01 | 0.04 | 0.04 | 58 | |
| 20260901150916 | 0 | 133 | 2.0 | 4.0 | 0.01 | 0.04 | 0.04 | 57 | |
| 20260901150353 | 0 | 187 | 0.0 | 4.0 | 0.02 | 0.04 | 0.04 | 59 | |
| 20260901145829 | 0 | 0 | 0.0 | 3.0 | 0.02 | 0.04 | 0.04 | 58 | |
| 20260901145308 | 0 | 161 | 0.0 | 3.0 | 0.03 | 0.04 | 0.04 | 58 | |
| 20260901144744 | 0 | 29 | 0.0 | 2.0 | 0.03 | 0.04 | 0.04 | 59 | |
| 20260901144222 | 0 | 18 | 0.0 | 2.0 | 0.02 | 0.04 | 0.04 | 61 | |
| 20260901143658 | 0 | 357 | 0.0 | 3.0 | 0.02 | 0.03 | 0.03 | 61 | |
| 20260901143135 | 0 | 348 | 0.0 | 3.0 | 0.02 | 0.03 | 0.03 | 61 | |
| 20260901142612 | 0 | 117 | 0.0 | 3.0 | 0.02 | 0.03 | 0.03 | 62 | |
| 20260901142049 | 0 | 113 | 0.0 | 5.0 | 0.02 | 0.03 | 0.03 | 62 | |
| 20260901141526 | 0 | 5 | 0.0 | 5.0 | 0.02 | 0.03 | 0.03 | 65 | |
| 20260901141003 | 0 | 197 | 0.0 | 5.0 | 0.02 | 0.03 | 0.03 | 63 | |
| 20260901140440 | 0 | 200 | 0.0 | 3.0 | 0.02 | 0.03 | 0.03 | 64 | |
| 20260901135917 | 0 | 40 | 0.0 | 2.0 | 0.02 | 0.03 | 0.03 | 69 | |
| 20260901135353 | 0 | 0 | 0.0 | 0.0 | 0.01 | 0.02 | 0.02 | 78 | |
| 20260901134831 | 0 | 0 | 0.0 | 0.0 | 0.01 | 0.01 | 0.01 | 76 | |
| 20260901134308 | 0 | 0 | 0.0 | 0.0 | 0.01 | 0.01 | 0.01 | 76 | |
| 20260901133745 | 0 | 0 | 0.0 | 0.0 | 0.01 | 0.01 | 0.01 | 76 | |
| 20260901133222 | 0 | 0 | 0.0 | 0.0 | 0.01 | 0.01 | 0.01 | 77 | |
| 20260901132659 | 0 | 0 | 0.0 | 0.0 | 0.01 | 0.01 | 0.01 | 75 | |
| 20260901132135 | 0 | 0 | 0.0 | 0.0 | 0.01 | 0.01 | 0.01 | 75 | |
| 20260901131612 | 0 | 0 | 0.0 | 0.0 | 0.01 | 0.01 | 0.01 | 75 | |
| 20260901131049 | 0 | 0 | 0.0 | 0.0 | 0.01 | 0.01 | 0.01 | 73 | |
| 20260901130526 | 0 | 0 | 0.0 | 0.0 | 0.01 | 0.01 | 0.01 | 68 | |
| 20260901130005 | 0 | 0 | 0.0 | 0.0 | 0.00 | 0.00 | 0.00 | 68 | |
| 20260901125440 | 0 | 0 | 0.0 | 0.0 | 0.00 | 0.00 | 0.00 | 65 | |
| 20260901124917 | 0 | 0 | 0.0 | 0.0 | 0.00 | 0.00 | 0.00 | 66 | |
| 20260901124354 | 0 | 0 | 0.0 | 0.0 | 0.00 | 0.00 | 0.00 | 62 | |
| 20260901123832 | 0 | 0 | 0.0 | 0.0 | 0.00 | 0.00 | 0.00 | 65 | |
| 20260901123308 | 0 | 0 | 0.0 | 2.0 | 0.00 | 0.00 | 0.00 | 62 | |
| 20260901122745 | 0 | 23 | 0.0 | 2.0 | 0.00 | 0.00 | 0.00 | 62 | |
| 20260901122222 | 0 | 0 | 0.0 | 0.0 | 0.00 | 0.00 | 0.00 | 61 | |
| 20260901121659 | 0 | 0 | 0.0 | 0.0 | 0.00 | 0.00 | 0.00 | 61 | |
| 20260901121136 | 0 | 0 | 0.0 | 2.0 | 0.00 | 0.00 | 0.00 | 61 | |
| 20260901120613 | 0 | 0 | 0.0 | 2.0 | 0.00 | 0.00 | 0.00 | 59 | |
| 20260901120051 | 0 | 180 | 0.0 | 2.0 | 0.00 | 0.00 | 0.00 | 61 | |
| 20260901115527 | 0 | 0 | 0.0 | 0.0 | 0.00 | 0.00 | 0.00 | 57 | |
| 20260901115004 | 0 | 0 | 0.0 | 3.0 | 0.00 | 0.00 | 0.00 | 59 | |
| 20260901114441 | 0 | 0 | 0.0 | 3.0 | 0.00 | 0.00 | 0.00 | 57 | |
| 20260901113918 | 0 | 177 | 0.0 | 3.0 | 0.00 | 0.00 | 0.00 | 55 | |
| 20260901113356 | 0 | 0 | 0.0 | 0.0 | 0.00 | 0.00 | 0.00 | 59 | |
| 20260901112832 | 0 | 0 | 0.0 | 0.0 | 0.00 | 0.00 | 0.00 | 59 | |
| 20260901112310 | 0 | 0 | 0.0 | 2.0 | 0.00 | 0.00 | 0.00 | 60 | |
| 20260901111747 | 0 | 182 | 0.0 | 2.0 | 0.00 | 0.00 | 0.00 | 61 | |
| 20260901111223 | 0 | 0 | 0.0 | 0.0 | 0.00 | 0.00 | 0.00 | 61 | |
| 20260901110700 | 0 | 0 | 0.0 | 2.0 | 0.00 | 0.00 | 0.00 | 55 | |
| 20260901110137 | 0 | 0 | 0.0 | 2.0 | 0.00 | 0.00 | 0.00 | 55 | |
| 20260901105614 | 0 | 194 | 0.0 | 2.0 | 0.00 | 0.00 | 0.00 | 55 | |
| 20260901105051 | 0 | 0 | 0.0 | 0.0 | 0.00 | 0.00 | 0.00 | 57 | |
| 20260901104528 | 0 | 0 | 0.0 | 0.0 | 0.00 | 0.00 | 0.00 | 60 | |
| 20260901104005 | 0 | 0 | 0.0 | 1.0 | 0.00 | 0.00 | 0.00 | 60 | |
| 20260901103443 | 0 | 0 | 0.0 | 1.0 | 0.00 | 0.00 | 0.00 | 55 | |
| 20260901102919 | 0 | 0 | 0.0 | 0.0 | 0.00 | 0.00 | 0.00 | 54 | |
| 20260901102356 | 0 | 0 | 0.0 | 0.0 | 0.00 | 0.00 | 0.00 | 58 | |
| 20260901100747 | 0 | 0 | 0.0 | 0.0 | 0.00 | 0.00 | 0.00 | 56 | |
| 20260901100224 | 0 | 0 | 0.0 | 0.0 | 0.00 | 0.00 | 0.00 | 56 | |
| 20260901095701 | 0 | 0 | 0.0 | 0.0 | 0.00 | 0.00 | 0.00 | 56 | |
| 20260901095138 | 0 | 0 | 0.0 | 0.0 | 0.00 | 0.00 | 0.00 | 54 | |
| 20260901094615 | 0 | 0 | 0.0 | 3.0 | 0.00 | 0.00 | 0.00 | 52 | |
| 20260901094052 | 0 | 68 | 0.0 | 3.0 | 0.00 | 0.00 | 0.00 | 52 | |
| 20260901093529 | 0 | 96 | 0.0 | 3.0 | 0.00 | 0.00 | 0.00 | 55 | |
| 20260901093006 | 0 | 145 | 0.0 | 1.0 | 0.00 | 0.00 | 0.00 | 56 | |
| 20260901092443 | 0 | 0 | 0.0 | 3.0 | 0.00 | 0.00 | 0.00 | 57 | |
| 20260901091921 | 0 | 0 | 0.0 | 3.0 | 0.00 | 0.00 | 0.00 | 56 | |
| 20260901091357 | 0 | 176 | 0.0 | 2.0 | 0.00 | 0.00 | 0.00 | 56 | |
| 20260901090834 | 0 | 0 | 0.0 | 0.0 | 0.00 | 0.00 | 0.00 | 56 | |
| 20260901090311 | 0 | 0 | 0.0 | 0.0 | 0.00 | 0.00 | 0.00 | 56 | |
| 20260901085749 | 0 | 0 | 0.0 | 0.0 | 0.00 | 0.00 | 0.00 | 49 | |
| 20260901085225 | 0 | 0 | 0.0 | 0.0 | 0.00 | 0.00 | 0.00 | 55 | |
| 20260901084702 | 0 | 0 | 0.0 | 0.0 | 0.00 | 0.00 | 0.00 | 54 | |
| 20260901084140 | 0 | 0 | 0.0 | 0.0 | 0.00 | 0.00 | 0.00 | 55 | |
| 20260901083616 | 0 | 0 | 0.0 | 0.0 | 0.00 | 0.00 | 0.00 | 54 | |
| 20260901083053 | 0 | 0 | 0.0 | 0.0 | 0.00 | 0.00 | 0.00 | 48 | |
| 20260901082530 | 0 | 0 | 0.0 | 0.0 | 0.00 | 0.00 | 0.00 | 48 | |
| 20260901082007 | 0 | 0 | 0.0 | 2.0 | 0.00 | 0.00 | 0.00 | 48 | |
| 20260901081444 | 0 | 23 | 0.0 | 2.0 | 0.00 | 0.00 | 0.00 | 52 | |
| 20260901080921 | 0 | 57 | 0.0 | 2.0 | 0.00 | 0.00 | 0.00 | 50 | |
| 20260901080358 | 0 | 0 | 0.0 | 0.0 | 0.00 | 0.00 | 0.00 | 53 | |
| 20260901075835 | 0 | 0 | 0.0 | 0.0 | 0.00 | 0.00 | 0.00 | 51 | |
| 20260901075312 | 0 | 0 | 0.0 | 1.0 | 0.00 | 0.00 | 0.00 | 51 | |
| 20260901074749 | 0 | 0 | 0.0 | 1.0 | 0.00 | 0.00 | 0.00 | 52 | |
| 20260901074228 | 0 | 144 | 0.0 | 4.0 | 0.00 | 0.00 | 0.00 | 48 | |
| 20260901073703 | 0 | 0 | 0.0 | 4.0 | 0.00 | 0.00 | 0.00 | 51 | |
| 20260901073140 | 0 | 196 | 0.0 | 4.0 | 0.00 | 0.00 | 0.00 | 54 | |
| 20260901072617 | 0 | 0 | 0.0 | 2.0 | 0.00 | 0.00 | 0.00 | 53 | |
| 20260901072054 | 0 | 0 | 0.0 | 2.0 | 0.00 | 0.00 | 0.00 | 55 |